User: anonymous   Login
Location: Frydek-Mistek
(49.6830°N, 18.3330°E)
Time: 12:54:08
(UTC+02:00)
Language:

Courier 1B Rocket - Orbit

View from above orbital plane
View from above orbital plane
View from above satellite
View from above satellite

Ground track
Ground track

The orbit data is extracted from the following two-line orbital elements,

1    59U 60013B   17142.64793389 +.00000119 +00000-0 +36564-4 0  9997
2    59 028.2484 220.5554 0189133 230.7615 127.6004 13.52949972794568
Epoch (UTC): 22 May 2017 15:33:01
Eccentricity: 0.0189133
inclination: 28.2484°
perigee height: 921 km
apogee height: 1202 km
right ascension of ascending node: 220.5554°
argument of perigee: 230.7615°
revolutions per day: 13.52949972
mean anomaly at epoch: 127.6004°
orbit number at epoch: 79456

The dashed part of the orbit path shows where the satellite is in the earth's shadow,  

DLR